Los Alamitos, CA

6:44 AM PST on December 12, 2017 (GMT -0800)
Los Alamitos Army Air Field

Weather History for KSLI - May, 2009

Change the Weather History Date:

Monday, May 11, 2009

  Actual Average Record
Temperature  
Mean Temperature 64 °F -  
Max Temperature 71 °F 71 °F 82 °F (2014)
Min Temperature 57 °F 58 °F 53 °F (2005)
Degree Days  
Heating Degree Days 2    
Growing Degree Days 14 (Base 50)    
Moisture  
Dew Point 57 °F    
Average Humidity 78    
Maximum Humidity 94    
Minimum Humidity 61    
Precipitation  
Precipitation 0.00 in - - ()
Sea Level Pressure  
Sea Level Pressure 29.91 in    
Wind  
Wind Speed 4 mph (SSW)    
Max Wind Speed 12 mph    
Max Gust Speed -    
Visibility 7 miles    
Events      
Averages and records for this station are not official NWS values.
T = Trace of Precipitation, MM = Missing Value Source: NWS Daily Summary

Daily Weather History Graph

Daily Weather History Graph

Search for Another Location

Airport or City:

Trip Planner

Search our weather history database for the weather conditions in past years. The results will help you decide how hot, cold, wet, or windy it might be!

Date:

Astronomy

May. 11, 2009 Rise Set
Actual Time 5:54 AM PDT 7:43 PM PDT
Civil Twilight 5:26 AM PDT 8:10 PM PDT
Nautical Twilight 4:53 AM PDT 8:44 PM PDT
Astronomical Twilight 4:18 AM PDT 9:19 PM PDT
Moon 10:32 PM PDT (5/11) 7:25 AM PDT (5/11)
Length of Visible Light 14h 44m
Length of Day
13h 49m
Waning Gibbous, 93% of the Moon is Illuminated
May 11
Waning Gibbous
May 17
Last Quarter
May 24
New
May 30
First Quarter
Jun 7
Full

Hourly Weather History & Observations

Time (PDT) Temp. Dew Point Humidity Pressure Visibility Wind Dir Wind Speed Gust Speed Precip Events Conditions
12:55 AM 58.1 °F 56.1 °F 93% 29.90 in 5.0 mi West 3.5 mph - N/A   Scattered Clouds
1:03 AM 57.2 °F 55.4 °F 94% 29.90 in 5.0 mi WSW 3.5 mph - N/A   Mostly Cloudy
1:55 AM 59.0 °F 56.8 °F 93% 29.90 in 5.0 mi Calm Calm - N/A   Overcast
1:58 AM 59.0 °F 57.2 °F 94% 29.90 in 5.0 mi Calm Calm - N/A   Overcast
2:55 AM 59.7 °F 57.4 °F 92% 29.90 in 4.0 mi South 3.5 mph - N/A   Overcast
3:55 AM 59.7 °F 57.7 °F 93% 29.89 in 5.0 mi South 3.5 mph - N/A   Overcast
7:55 AM 62.1 °F 55.2 °F 78% 29.94 in 6.0 mi SE 3.5 mph - N/A   Haze
8:55 AM 62.2 °F 55.0 °F 77% 29.95 in 6.0 mi Calm Calm - N/A   Haze
9:55 AM 63.5 °F 55.6 °F 75% 29.95 in 6.0 mi Variable 3.5 mph - N/A   Haze
10:55 AM 65.8 °F 56.5 °F 72% 29.95 in 6.0 mi Variable 4.6 mph - N/A   Haze
11:33 AM 68.0 °F 57.2 °F 68% 29.95 in 7.0 mi Calm Calm - N/A   Mostly Cloudy
11:55 AM 69.6 °F 57.2 °F 65% 29.95 in 7.0 mi SSW 8.1 mph - N/A   Mostly Cloudy
12:55 PM 70.3 °F 57.0 °F 63% 29.93 in 7.0 mi SSW 6.9 mph - N/A   Clear
1:55 PM 70.7 °F 57.7 °F 63% 29.92 in 10.0 mi South 11.5 mph - N/A   Clear
2:55 PM 70.3 °F 57.0 °F 63% 29.90 in 10.0 mi South 11.5 mph - N/A   Clear
3:55 PM 70.3 °F 56.7 °F 62% 29.88 in 10.0 mi SSW 11.5 mph - N/A   Clear
4:55 PM 70.5 °F 56.7 °F 61% 29.87 in 10.0 mi SSW 10.4 mph - N/A   Clear
5:55 PM 69.8 °F 57.4 °F 65% 29.86 in 10.0 mi SSW 11.5 mph - N/A   Clear
7:55 PM 62.1 °F 55.2 °F 78% 29.88 in 7.0 mi West 9.2 mph - N/A   Clear
10:55 PM 58.6 °F 55.8 °F 90% 29.92 in 6.0 mi SSE 3.5 mph - N/A   Clear
11:12 PM 59.0 °F 57.2 °F 94% 29.92 in 6.0 mi South 4.6 mph - N/A   Mostly Cloudy
11:55 PM 59.9 °F 56.8 °F 90% 29.92 in 6.0 mi South 6.9 mph - N/A   Overcast